Flag for U.S.A. Weather past 2 weeks in Fairfax, Virginia, U.S.A.

Now
74 °F

Passing clouds.


Feels Like: 74 °F
Forecast: 71 / 87 °F
Wind: No wind

Location: Washington-Dulles International Airport

Current Time: Sep 4, 2015 at 4:45:12 AM

Latest Report: Sep 4, 2015 at 3:52 AM


Visibility: 10 mi

Pressure: 29.91 "Hg

Humidity: 79%

Dew point: 67 °F

Location of FairfaxLocation

Historic Weather in Fairfax — Graph

°F

Fairfax temperature yesterday

Maximum temperature yesterday: 93 °F (at 3:52 PM)
Minimum temperature yesterday: 66 °F (at 5:52 AM)
Average temperature yesterday: 80 °F

Past Weeks' High & Low Weather Summary

 TemperatureHumidityPressure
High93 °F (Sep 3, 3:52 PM)100% (Aug 20, 9:52 PM)30.22 "Hg (Aug 20, 9:52 PM)
Low56 °F (Aug 23, 4:52 AM)34% (Aug 22, 3:52 PM)29.80 "Hg (Aug 24, 3:52 PM)
Average75 °F67%30.03 "Hg
* Reported Aug 20 2:59 AM — Sep 4 2:52 AM, Fairfax, Weather by CustomWeather, © 2015

Note: Actual official high and low records may vary slightly from our data, if they occured in-between our weather recording intervals... More about our weather records

Advertising

Fairfax weather history for previous 24 hours

 ConditionsComfort  
Time TempWeatherWind HumidityBarometerVisibility
2:52 AM
Fri, Sep 4
74 °FPassing clouds.3 mph79%29.91 "Hg10 mi
1:52 AM77 °FPassing clouds.5 mph71%29.91 "Hg9 mi
12:52 AM77 °FPassing clouds.5 mph71%29.90 "Hg10 mi
11:52 PM
Thu, Sep 3
77 °FPassing clouds.3 mph71%29.90 "Hg10 mi
10:52 PM78 °FPartly cloudy.No wind69%29.90 "Hg10 mi
9:52 PM81 °FMostly cloudy.5 mph62%29.90 "Hg9 mi
8:52 PM82 °FMostly cloudy.No wind67%29.89 "Hg9 mi
7:52 PM83 °FBroken clouds.7 mph65%29.87 "Hg9 mi
6:52 PM88 °FBroken clouds.9 mph46%29.85 "Hg10 mi
5:52 PM92 °FBroken clouds.9 mph40%29.84 "Hg10 mi
4:52 PM93 °FScattered clouds.7 mph37%29.84 "Hg10 mi
3:52 PM93 °FScattered clouds.7 mph37%29.85 "Hg10 mi
2:52 PM91 °FScattered clouds.No wind42%29.88 "Hg10 mi
1:52 PM91 °FScattered clouds.5 mph45%29.89 "Hg10 mi
12:52 PM90 °FScattered clouds.12 mph47%29.91 "Hg10 mi
11:52 AM88 °FSunny.10 mph52%29.92 "Hg10 mi
10:52 AM86 °FSunny.8 mph55%29.93 "Hg10 mi
9:52 AM82 °FSunny.7 mph60%29.93 "Hg10 mi
8:52 AM78 °FSunny.6 mph69%29.94 "Hg10 mi
7:52 AM74 °FPassing clouds.6 mph74%29.93 "Hg10 mi
6:52 AM66 °FPassing clouds.No wind96%29.92 "Hg7 mi
5:52 AM66 °FClear.No wind96%29.91 "Hg8 mi
4:52 AM67 °FClear.No wind93%29.90 "Hg8 mi
Weather by CustomWeather, © 2015

See weather overviewHow to use our weather pages